STARLINK-35679, 66408

Orbit data source: Space-Track

STARLINK-35679, 66408 is a payload satellite owned by SpaceX/Seattle (US) in LEO that was launched on Sat, 08 Nov 2025 UTC via an FALCON 9 launch vehicle from the Air Force Eastern Test Range (AFETR). Payload-class satellites include a variety of spacecraft equipped with specific instruments for various scientific and technological missions. These include communications satellites like Starlink; space stations such as the ISS; scientific satellites like the Hubble; Earth observation satellites from companies like Planet Labs, Umbra, and HawkEye 360; GPS; miniature CubeSats for education and research; and military/defense satellites.

Loading next visibility...
Identifier
66408, 2025-257AE
Orbit
LEO
Country
Flag of USUS
Related business
Manufacturer
SpaceX/Seattle
Mission
Operational Commercial Communications
Bus & Motor
STARLINK V2MO, Unknown motor
Mass
575 kg wet, ~530 kg dry
Launch date (UTC)
2025-11-08 (7 months ago)
Launch vehicle
FALCON 9
Launch site
Air Force Eastern Test Range (AFETR)
Object type
Payload
Rocket body
Debris
Shape & HBR
Box + 2 Pan, 17.7 m
Radar Cross Section
36.964 m², Large (>1 m²)

Expand to show TLE details & history
Last TLE update: 23 hours ago

TLE from 23 hours ago
0 STARLINK-35679
1 66408U 25257AE  26170.94701376  .00024817  00000-0  74294-3 0  9999
2 66408  53.1599 100.3335 0001333  96.5695 263.5459 15.34411211 35413
Epoch: 2026-06-19T22:43Z
TLE epoch observation values (Epoch: 2026-06-19T22:43:41.988Z)
Latitude
-0.00007°
Longitude
-148.76019°
Altitude
463.674 km
Speed
7.636 km/s
True Right ascension
06h 41m 20s
True Declination
0° 00' 00"
Sunlit
Object was in daylight at epoch
Visualization orbit readout
Latitude
Unknown
Longitude
Unknown
Altitude
Unknown
Speed
Unknown
Apparent Right ascension
Unknown
Apparent Declination
Unknown
Sunlit
N/A
Visualization observer readout
Local Sidereal Time
08:33:23
Azimuth
Unknown
Elevation
Unknown
Doppler factor
Unknown
Orbital elements
Apogee altitude
463.839 km
Perigee altitude
462.015 km
Semi-major axis
6,841.064 km
Eccentricity
0.00013
Inclination
53.1599°
RAAN
100.3335°
Arg. of periapsis
96.5695°
True anomaly
263.53072°
Mean anomaly
263.5459°
Eccentric anomaly
263.53831°
Mean motion
3.83582 °/min
Orbital period
93.85 mins
BSTAR
0.00074294
Loading maneuver chart data...
Computing Atmospheric mass density...
Loading historical data...
Loading historical data...
Loading historical data...
Loading historical data...
Loading historical data...
Loading historical data...
Loading historical data...

Documentation

Showing up to 5 results
|